Location: Alando
(42.3054°N, 9.2895°E)
Time: 12:44:44
(UTC+00:00)

Cosmos 1174 - Pass Details

Date: 09 April 2020
Orbit: 371 x 1148 km, 66.1° (Epoch: 26 May)

Event Time Altitude Azimuth Distance (km) Brightness Sun altitude
Rises 19:55:50 0° 333° (NNW) 2,698 8.4 -20.9°
Reaches altitude 10° 19:57:52 10° 338° (NNW) 1,905 7.3 -21.2°
Maximum altitude 20:02:06 54° 57° (ENE) 825 4.5 -21.8°
Enters shadow 20:02:42 50° 86° (E) 880 4.5 -21.9°
